FFT3382 KSFO-KSAN

Flight info

Callsign FFT3382
Flight time 1h 9m
Altitude 37000
Route WESLA5 YYUNG LAX COMIX2
Aircraft A20N/M-SDE2E3FGHIJ1RWXY/LB1

Departure

Time 2026-05-08 05:26
Airport San Francisco International Airport (KSFO)

Arrival

Time 2026-05-08 06:35
Airport San Diego International Airport (KSAN)
Time Latitude Longitude Altitude Speed Heading
2026-05-08 04:52 37.61124 -122.38479 33 ft 0 kts 300°
2026-05-08 05:13 37.61124 -122.38478 33 ft 0 kts 300°
2026-05-08 05:14 37.61117 -122.38464 33 ft 2 kts 300°
2026-05-08 05:14 37.61109 -122.38447 33 ft 2 kts 300°
2026-05-08 05:14 37.61102 -122.38431 33 ft 2 kts 300°
2026-05-08 05:14 37.61095 -122.38414 33 ft 2 kts 300°
2026-05-08 05:15 37.61087 -122.38397 33 ft 2 kts 304°
2026-05-08 05:15 37.61076 -122.38385 33 ft 2 kts 335°
2026-05-08 05:15 37.61066 -122.38380 33 ft 2 kts 352°
2026-05-08 05:15 37.61050 -122.38381 33 ft 2 kts 17°
2026-05-08 05:16 37.61042 -122.38385 33 ft 1 kts 31°
2026-05-08 05:16 37.61038 -122.38390 33 ft 0 kts 32°
2026-05-08 05:19 37.61047 -122.38382 33 ft 4 kts 32°
2026-05-08 05:19 37.61101 -122.38341 33 ft 12 kts 30°
2026-05-08 05:19 37.61192 -122.38276 33 ft 15 kts 28°
2026-05-08 05:19 37.61293 -122.38210 33 ft 16 kts 28°
2026-05-08 05:20 37.61393 -122.38142 32 ft 16 kts 28°
2026-05-08 05:20 37.61499 -122.38074 32 ft 17 kts 26°
2026-05-08 05:20 37.61607 -122.38002 31 ft 17 kts 28°
2026-05-08 05:20 37.61709 -122.37928 30 ft 16 kts 40°
2026-05-08 05:21 37.61784 -122.37840 29 ft 13 kts 47°
2026-05-08 05:21 37.61788 -122.37732 26 ft 14 kts 114°
2026-05-08 05:21 37.61752 -122.37607 25 ft 13 kts 110°
2026-05-08 05:21 37.61712 -122.37504 23 ft 13 kts 118°
2026-05-08 05:22 37.61666 -122.37389 21 ft 15 kts 116°
2026-05-08 05:22 37.61613 -122.37260 20 ft 17 kts 118°
2026-05-08 05:22 37.61548 -122.37105 17 ft 21 kts 118°
2026-05-08 05:22 37.61472 -122.36935 15 ft 22 kts 127°
2026-05-08 05:23 37.61373 -122.36793 14 ft 19 kts 124°
2026-05-08 05:23 37.61306 -122.36639 13 ft 20 kts 118°
2026-05-08 05:23 37.61239 -122.36481 13 ft 20 kts 117°
2026-05-08 05:23 37.61171 -122.36317 12 ft 20 kts 117°
2026-05-08 05:24 37.61115 -122.36182 12 ft 16 kts 118°
2026-05-08 05:24 37.61063 -122.36061 12 ft 12 kts 118°
2026-05-08 05:24 37.61055 -122.35959 12 ft 11 kts 69°
2026-05-08 05:24 37.61117 -122.35895 12 ft 12 kts 25°
2026-05-08 05:25 37.61189 -122.35875 12 ft 10 kts 314°
2026-05-08 05:25 37.61230 -122.35972 12 ft 20 kts 297°
2026-05-08 05:25 37.61418 -122.36426 13 ft 94 kts 298°
2026-05-08 05:25 37.61825 -122.37385 77 ft 145 kts 297°
2026-05-08 05:26 37.62295 -122.38493 726 ft 143 kts 297°
2026-05-08 05:26 37.62767 -122.39586 1401 ft 145 kts 300°
2026-05-08 05:26 37.63257 -122.40693 2055 ft 147 kts 300°
2026-05-08 05:26 37.63760 -122.41866 2489 ft 162 kts 300°
2026-05-08 05:27 37.64329 -122.43161 2993 ft 174 kts 300°
2026-05-08 05:27 37.64939 -122.44530 3547 ft 185 kts 300°
2026-05-08 05:27 37.65584 -122.46012 3947 ft 207 kts 299°
2026-05-08 05:27 37.66304 -122.47677 4436 ft 226 kts 299°
2026-05-08 05:28 37.66882 -122.49596 5000 ft 244 kts 276°
2026-05-08 05:28 37.66601 -122.51769 5566 ft 264 kts 245°
2026-05-08 05:28 37.65365 -122.53567 6398 ft 273 kts 213°
2026-05-08 05:28 37.63428 -122.54274 7345 ft 280 kts 179°
2026-05-08 05:29 37.61524 -122.53645 8224 ft 285 kts 159°
2026-05-08 05:29 37.59661 -122.52676 9037 ft 291 kts 159°
2026-05-08 05:29 37.57740 -122.51716 9848 ft 296 kts 160°
2026-05-08 05:29 37.55772 -122.50754 10607 ft 304 kts 160°
2026-05-08 05:30 37.53747 -122.49776 11062 ft 321 kts 160°
2026-05-08 05:30 37.51601 -122.48743 11528 ft 336 kts 161°
2026-05-08 05:30 37.49329 -122.47950 12225 ft 341 kts 173°
2026-05-08 05:30 37.46952 -122.47836 13009 ft 341 kts 186°
2026-05-08 05:31 37.44577 -122.48214 13760 ft 344 kts 189°
2026-05-08 05:31 37.42189 -122.48676 14462 ft 348 kts 190°
2026-05-08 05:31 37.39761 -122.49151 15159 ft 352 kts 190°
2026-05-08 05:31 37.37345 -122.49617 15836 ft 357 kts 190°
2026-05-08 05:32 37.34896 -122.50081 16517 ft 361 kts 190°
2026-05-08 05:32 37.32258 -122.50577 17226 ft 365 kts 190°
2026-05-08 05:32 37.29732 -122.51049 17877 ft 370 kts 189°
2026-05-08 05:32 37.26993 -122.51559 18567 ft 374 kts 190°
2026-05-08 05:33 37.24187 -122.52078 19264 ft 377 kts 189°
2026-05-08 05:33 37.21513 -122.52575 19899 ft 381 kts 190°
2026-05-08 05:33 37.18785 -122.53079 20516 ft 384 kts 189°
2026-05-08 05:33 37.15964 -122.53601 21137 ft 388 kts 189°
2026-05-08 05:34 37.12885 -122.54168 21786 ft 392 kts 189°
2026-05-08 05:34 37.09793 -122.54738 22406 ft 396 kts 189°
2026-05-08 05:34 37.06710 -122.55308 23009 ft 400 kts 189°
2026-05-08 05:34 37.03745 -122.55827 23594 ft 404 kts 186°
2026-05-08 05:35 37.00643 -122.55641 24151 ft 409 kts 169°
2026-05-08 05:35 36.97607 -122.54320 24774 ft 413 kts 153°
2026-05-08 05:35 36.94778 -122.52293 25384 ft 416 kts 150°
2026-05-08 05:35 36.91927 -122.50155 25947 ft 420 kts 149°
2026-05-08 05:36 36.89091 -122.48031 26460 ft 424 kts 150°
2026-05-08 05:36 36.86338 -122.45984 26940 ft 428 kts 150°
2026-05-08 05:36 36.83431 -122.43837 27435 ft 431 kts 150°
2026-05-08 05:36 36.80503 -122.41685 27924 ft 434 kts 150°
2026-05-08 05:37 36.77595 -122.39549 28405 ft 437 kts 150°
2026-05-08 05:37 36.74644 -122.37387 28859 ft 440 kts 150°
2026-05-08 05:37 36.71679 -122.35216 29300 ft 443 kts 150°
2026-05-08 05:37 36.68964 -122.33232 29716 ft 445 kts 150°
2026-05-08 05:38 36.66309 -122.31293 30215 ft 444 kts 150°
2026-05-08 05:38 36.63654 -122.29356 30739 ft 442 kts 150°
2026-05-08 05:38 36.60744 -122.27234 31307 ft 441 kts 150°
2026-05-08 05:38 36.57770 -122.25066 31834 ft 440 kts 150°
2026-05-08 05:39 36.55094 -122.23119 32278 ft 439 kts 150°
2026-05-08 05:39 36.52454 -122.21200 32729 ft 438 kts 150°
2026-05-08 05:39 36.49861 -122.19316 33166 ft 436 kts 150°
2026-05-08 05:39 36.46917 -122.17180 33658 ft 434 kts 150°
2026-05-08 05:40 36.44206 -122.15212 34113 ft 433 kts 150°
2026-05-08 05:40 36.41589 -122.13315 34517 ft 432 kts 150°
2026-05-08 05:40 36.38713 -122.11232 34928 ft 432 kts 150°
2026-05-08 05:40 36.35955 -122.09236 35321 ft 431 kts 150°
2026-05-08 05:41 36.33290 -122.07309 35658 ft 431 kts 150°
2026-05-08 05:41 36.30665 -122.05414 35932 ft 432 kts 150°
2026-05-08 05:41 36.27940 -122.03446 36203 ft 434 kts 150°
2026-05-08 05:41 36.25226 -122.01489 36469 ft 434 kts 150°
2026-05-08 05:42 36.22387 -121.99442 36739 ft 435 kts 150°
2026-05-08 05:42 36.19667 -121.97482 36979 ft 436 kts 150°
2026-05-08 05:42 36.17044 -121.95592 37079 ft 438 kts 150°
2026-05-08 05:43 36.11556 -121.91645 37078 ft 438 kts 150°
2026-05-08 05:43 36.05947 -121.87547 37073 ft 438 kts 147°
2026-05-08 05:44 36.01044 -121.83081 37073 ft 439 kts 140°
2026-05-08 05:44 35.96670 -121.77878 37073 ft 439 kts 132°
2026-05-08 05:45 35.92807 -121.72018 37071 ft 439 kts 127°
2026-05-08 05:45 35.88806 -121.65609 37069 ft 438 kts 127°
2026-05-08 05:46 35.84782 -121.59195 37069 ft 439 kts 127°
2026-05-08 05:46 35.80893 -121.53021 37068 ft 439 kts 127°
2026-05-08 05:47 35.76908 -121.46712 37065 ft 439 kts 127°
2026-05-08 05:47 35.73158 -121.40786 37069 ft 439 kts 127°
2026-05-08 05:48 35.69220 -121.34573 37072 ft 438 kts 128°
2026-05-08 05:48 35.65252 -121.28323 37076 ft 437 kts 128°
2026-05-08 05:49 35.61234 -121.22005 37075 ft 437 kts 128°
2026-05-08 05:49 35.57424 -121.16021 37066 ft 437 kts 128°
2026-05-08 05:50 35.53340 -121.09621 37062 ft 437 kts 128°
2026-05-08 05:50 35.49303 -121.02959 37056 ft 438 kts 125°
2026-05-08 05:51 35.45470 -120.96350 37050 ft 437 kts 125°
2026-05-08 05:51 35.41532 -120.89566 37052 ft 437 kts 125°
2026-05-08 05:52 35.37684 -120.82950 37054 ft 437 kts 125°
2026-05-08 05:52 35.33962 -120.76562 37055 ft 437 kts 125°
2026-05-08 05:53 35.30308 -120.70301 37051 ft 438 kts 125°
2026-05-08 05:53 35.26406 -120.63629 37041 ft 438 kts 125°
2026-05-08 05:54 35.22327 -120.56670 37040 ft 437 kts 125°
2026-05-08 05:54 35.18229 -120.49691 37046 ft 437 kts 125°
2026-05-08 05:55 35.14135 -120.42731 37054 ft 437 kts 125°
2026-05-08 05:55 35.10443 -120.36467 37062 ft 438 kts 126°
2026-05-08 05:56 35.06851 -120.30383 37070 ft 438 kts 126°
2026-05-08 05:56 35.03181 -120.24179 37089 ft 438 kts 126°
2026-05-08 05:57 34.99304 -120.17638 37114 ft 437 kts 126°
2026-05-08 05:57 34.95546 -120.11309 37135 ft 437 kts 126°
2026-05-08 05:58 34.91900 -120.05176 37155 ft 437 kts 126°
2026-05-08 05:58 34.88117 -119.98824 37170 ft 438 kts 126°
2026-05-08 05:59 34.83940 -119.91828 37164 ft 438 kts 126°
2026-05-08 05:59 34.79802 -119.84911 37148 ft 439 kts 126°
2026-05-08 06:00 34.75967 -119.78512 37145 ft 439 kts 126°
2026-05-08 06:00 34.71884 -119.71708 37141 ft 439 kts 126°
2026-05-08 06:01 34.67763 -119.64853 37146 ft 439 kts 126°
2026-05-08 06:01 34.63639 -119.58010 37133 ft 440 kts 126°
2026-05-08 06:02 34.59744 -119.51561 37129 ft 440 kts 126°
2026-05-08 06:02 34.56126 -119.45576 37129 ft 440 kts 126°
2026-05-08 06:03 34.52354 -119.39348 37134 ft 440 kts 126°
2026-05-08 06:03 34.48649 -119.33241 37146 ft 441 kts 126°
2026-05-08 06:04 34.44697 -119.26742 37137 ft 441 kts 126°
2026-05-08 06:04 34.40993 -119.20660 37108 ft 441 kts 126°
2026-05-08 06:05 34.37249 -119.14523 37070 ft 441 kts 126°
2026-05-08 06:05 34.33616 -119.08575 37025 ft 441 kts 126°
2026-05-08 06:06 34.29656 -119.02107 37020 ft 441 kts 126°
2026-05-08 06:06 34.25828 -118.95863 37025 ft 441 kts 126°
2026-05-08 06:07 34.22161 -118.89893 37020 ft 441 kts 126°
2026-05-08 06:07 34.18291 -118.83605 37019 ft 441 kts 126°
2026-05-08 06:08 34.14543 -118.77523 37020 ft 441 kts 126°
2026-05-08 06:08 34.10889 -118.71600 37024 ft 441 kts 126°
2026-05-08 06:09 34.07215 -118.65658 37021 ft 442 kts 126°
2026-05-08 06:09 34.03504 -118.59664 37019 ft 442 kts 126°
2026-05-08 06:10 33.99767 -118.53635 37028 ft 441 kts 125°
2026-05-08 06:10 33.96006 -118.47578 36838 ft 440 kts 125°
2026-05-08 06:10 33.94145 -118.44615 35907 ft 447 kts 127°
2026-05-08 06:11 33.92138 -118.41731 34856 ft 454 kts 130°
2026-05-08 06:11 33.89975 -118.38905 33938 ft 457 kts 131°
2026-05-08 06:11 33.87792 -118.36082 33140 ft 458 kts 131°
2026-05-08 06:11 33.85613 -118.33270 32374 ft 458 kts 132°
2026-05-08 06:12 33.83437 -118.30460 31591 ft 458 kts 131°
2026-05-08 06:12 33.81241 -118.27621 30781 ft 459 kts 131°
2026-05-08 06:12 33.79020 -118.24752 29950 ft 459 kts 131°
2026-05-08 06:12 33.76831 -118.21920 29106 ft 459 kts 131°
2026-05-08 06:13 33.74670 -118.19090 28392 ft 456 kts 131°
2026-05-08 06:13 33.72554 -118.16308 27811 ft 450 kts 130°
2026-05-08 06:13 33.70430 -118.13512 27271 ft 444 kts 130°
2026-05-08 06:13 33.68362 -118.10794 26755 ft 438 kts 130°
2026-05-08 06:14 33.66297 -118.08082 26243 ft 432 kts 131°
2026-05-08 06:14 33.64252 -118.05400 25739 ft 427 kts 130°
2026-05-08 06:14 33.62260 -118.02786 25245 ft 422 kts 131°
2026-05-08 06:14 33.60277 -118.00189 24751 ft 418 kts 130°
2026-05-08 06:15 33.58301 -117.97604 24258 ft 414 kts 130°
2026-05-08 06:15 33.56355 -117.95062 23773 ft 410 kts 130°
2026-05-08 06:15 33.54325 -117.92527 23273 ft 407 kts 133°
2026-05-08 06:15 33.52323 -117.90193 22797 ft 404 kts 134°
2026-05-08 06:16 33.50231 -117.87762 22296 ft 401 kts 134°
2026-05-08 06:16 33.48201 -117.85409 21802 ft 399 kts 134°
2026-05-08 06:16 33.46175 -117.83060 21297 ft 396 kts 134°
2026-05-08 06:16 33.44172 -117.80750 20812 ft 394 kts 135°
2026-05-08 06:17 33.40013 -117.76281 19813 ft 390 kts 136°
2026-05-08 06:17 33.37967 -117.74096 19314 ft 387 kts 136°
2026-05-08 06:17 33.35887 -117.71877 18800 ft 385 kts 136°
2026-05-08 06:18 33.33875 -117.69728 18305 ft 383 kts 136°
2026-05-08 06:18 33.31876 -117.67595 17835 ft 380 kts 136°
2026-05-08 06:18 33.29892 -117.65477 17343 ft 378 kts 136°
2026-05-08 06:18 33.27905 -117.63361 16857 ft 376 kts 136°
2026-05-08 06:19 33.25924 -117.61250 16380 ft 373 kts 136°
2026-05-08 06:19 33.23985 -117.59192 15913 ft 370 kts 136°
2026-05-08 06:19 33.22025 -117.57126 15445 ft 367 kts 136°
2026-05-08 06:19 33.20120 -117.55121 14968 ft 363 kts 136°
2026-05-08 06:20 33.18187 -117.53089 14497 ft 360 kts 136°
2026-05-08 06:20 33.16328 -117.51137 14057 ft 356 kts 136°
2026-05-08 06:20 33.14465 -117.49194 13612 ft 353 kts 138°
2026-05-08 06:20 33.12511 -117.47391 13170 ft 351 kts 142°
2026-05-08 06:21 33.10503 -117.45703 12727 ft 348 kts 143°
2026-05-08 06:21 33.08539 -117.44069 12285 ft 346 kts 143°
2026-05-08 06:21 33.06552 -117.42419 11837 ft 343 kts 143°
2026-05-08 06:21 33.04590 -117.40785 11394 ft 340 kts 142°
2026-05-08 06:22 33.02657 -117.39166 10952 ft 338 kts 142°
2026-05-08 06:22 33.00724 -117.37543 10587 ft 334 kts 142°
2026-05-08 06:22 32.98858 -117.35978 10306 ft 325 kts 142°
2026-05-08 06:22 32.97034 -117.34449 10198 ft 310 kts 143°
2026-05-08 06:23 32.95283 -117.32981 10096 ft 297 kts 143°
2026-05-08 06:23 32.93633 -117.31599 9994 ft 285 kts 143°
2026-05-08 06:23 32.92034 -117.30260 9900 ft 273 kts 143°
2026-05-08 06:23 32.90500 -117.28977 9634 ft 270 kts 143°
2026-05-08 06:24 32.88949 -117.27685 9312 ft 268 kts 143°
2026-05-08 06:24 32.87407 -117.26401 8993 ft 267 kts 143°
2026-05-08 06:24 32.85847 -117.25104 8666 ft 266 kts 144°
2026-05-08 06:24 32.84333 -117.23846 8351 ft 265 kts 144°
2026-05-08 06:25 32.82818 -117.22588 8040 ft 264 kts 144°
2026-05-08 06:25 32.81419 -117.21190 7703 ft 262 kts 126°
2026-05-08 06:25 32.80630 -117.19273 7394 ft 257 kts 103°
2026-05-08 06:25 32.80186 -117.17216 7094 ft 256 kts 101°
2026-05-08 06:26 32.79773 -117.15181 6797 ft 255 kts 101°
2026-05-08 06:26 32.79342 -117.13122 6501 ft 255 kts 102°
2026-05-08 06:26 32.78898 -117.11070 6209 ft 255 kts 102°
2026-05-08 06:26 32.78450 -117.09038 5979 ft 251 kts 102°
2026-05-08 06:27 32.78002 -117.07095 5955 ft 243 kts 105°
2026-05-08 06:27 32.77402 -117.05197 5956 ft 245 kts 112°
2026-05-08 06:27 32.76689 -117.03343 5954 ft 244 kts 113°
2026-05-08 06:27 32.75968 -117.01517 5953 ft 245 kts 113°
2026-05-08 06:28 32.75244 -116.99681 5953 ft 245 kts 113°
2026-05-08 06:28 32.74569 -116.97813 5956 ft 246 kts 110°
2026-05-08 06:28 32.73915 -116.95894 5951 ft 247 kts 111°
2026-05-08 06:28 32.73251 -116.94003 5794 ft 242 kts 111°
2026-05-08 06:29 32.72595 -116.92152 5499 ft 241 kts 111°
2026-05-08 06:29 32.71792 -116.90390 5202 ft 241 kts 132°
2026-05-08 06:29 32.70402 -116.89303 4717 ft 242 kts 168°
2026-05-08 06:29 32.68729 -116.89406 4155 ft 246 kts 204°
2026-05-08 06:30 32.67416 -116.90593 3846 ft 237 kts 239°
2026-05-08 06:30 32.66937 -116.92411 3582 ft 227 kts 274°
2026-05-08 06:30 32.67213 -116.94214 3375 ft 219 kts 289°
2026-05-08 06:30 32.67698 -116.95902 3228 ft 211 kts 291°
2026-05-08 06:31 32.68165 -116.97545 3140 ft 204 kts 289°
2026-05-08 06:31 32.68576 -116.99125 3073 ft 195 kts 288°
2026-05-08 06:31 32.68953 -117.00659 3014 ft 196 kts 288°
2026-05-08 06:31 32.69325 -117.02217 2991 ft 190 kts 287°
2026-05-08 06:32 32.69666 -117.03654 2985 ft 174 kts 288°
2026-05-08 06:32 32.69988 -117.05008 2856 ft 164 kts 288°
2026-05-08 06:32 32.70304 -117.06325 2500 ft 168 kts 287°
2026-05-08 06:32 32.70629 -117.07677 2135 ft 172 kts 287°
2026-05-08 06:33 32.70955 -117.09029 1764 ft 170 kts 287°
2026-05-08 06:33 32.71270 -117.10337 1501 ft 160 kts 287°
2026-05-08 06:33 32.71564 -117.11561 1262 ft 147 kts 287°
2026-05-08 06:33 32.71833 -117.12673 1040 ft 135 kts 287°
2026-05-08 06:34 32.72093 -117.13745 862 ft 134 kts 286°
2026-05-08 06:34 32.72348 -117.14805 678 ft 133 kts 285°
2026-05-08 06:34 32.72603 -117.15858 467 ft 132 kts 286°
2026-05-08 06:34 32.72865 -117.16912 290 ft 132 kts 285°
2026-05-08 06:35 32.73113 -117.17966 83 ft 131 kts 285°
2026-05-08 06:35 32.73349 -117.18940 23 ft 107 kts 286°
2026-05-08 06:35 32.73504 -117.19579 23 ft 38 kts 287°
2026-05-08 06:35 32.73530 -117.19769 22 ft 12 kts 253°
2026-05-08 06:36 32.73502 -117.19871 22 ft 13 kts 252°
2026-05-08 06:36 32.73497 -117.19973 21 ft 12 kts 284°
2026-05-08 06:36 32.73523 -117.20080 21 ft 13 kts 286°
2026-05-08 06:36 32.73546 -117.20179 21 ft 10 kts 280°
2026-05-08 06:37 32.73506 -117.20243 20 ft 11 kts 197°
2026-05-08 06:37 32.73426 -117.20268 20 ft 12 kts 195°
2026-05-08 06:37 32.73341 -117.20270 20 ft 12 kts 159°
2026-05-08 06:37 32.73270 -117.20264 20 ft 6 kts 200°
2026-05-08 06:38 32.73242 -117.20278 20 ft 1 kts 200°
2026-05-08 06:38 32.73233 -117.20282 20 ft 0 kts 199°
2026-05-08 06:38 32.73230 -117.20283 20 ft 0 kts 199°